Stations météo

réclame
Mon MeteoGroup
Spangdahlem, Allemagne (10607): Température de l'air & dewpoint: 17.08.2019 15:00:00 - 23.08.2019 15:00:00 (CEST)Spangdahlem, Allemagne (10607): Vitesse du vent & gusts: 17.08.2019 15:00:00 - 23.08.2019 15:00:00 (CEST)Spangdahlem, Allemagne (10607): Direction du vent: 17.08.2019 15:00:00 - 23.08.2019 15:00:00 (CEST)Spangdahlem, Allemagne (10607): reduced air pressure: 17.08.2019 15:00:00 - 23.08.2019 15:00:00 (CEST)Spangdahlem, Allemagne (10607): visibility: 17.08.2019 15:00:00 - 23.08.2019 15:00:00 (CEST)Spangdahlem, Allemagne (10607): Quantités de précipitations: 17.08.2019 15:00:00 - 23.08.2019 15:00:00 (CEST)
Date & Time tt [°C] td [°C] ff [km/h] ff [knt] fx [km/h] fx [knt] dd ppp [hPa] vv [km] rr [mm]
23.08.2019 15:00:00 26,0 10,6 15 8 - - E 1022,7 10 -
23.08.2019 14:00:00 25,1 10,2 16 9 - - ENE 1022,9 10 -
23.08.2019 13:00:00 24,3 9,1 8 4 - - E 1023,8 10 -
23.08.2019 12:00:00 23,9 10,5 15 8 - - ESE 1023,8 10 -
23.08.2019 11:00:00 21,7 11,7 13 7 - - E 1024,6 10 -
23.08.2019 10:00:00 18,9 11,7 13 7 - - E 1024,4 10 -
23.08.2019 09:00:00 15,6 10,4 11 6 - - E 1024,6 10 -
23.08.2019 08:00:00 11,9 10,0 8 4 - - E 1024,4 10 -
23.08.2019 07:00:00 11,3 8,7 0 0 - - N 1024,4 10 -
23.08.2019 06:00:00 11,2 8,8 5 3 - - ESE 1024,4 10 -
23.08.2019 05:00:00 11,8 9,0 0 0 - - N 1024,3 10 -
23.08.2019 04:00:00 11,7 9,1 0 0 - - N 1024,3 10 -
23.08.2019 03:00:00 12,8 9,6 5 3 - - E 1023,9 10 -
23.08.2019 02:00:00 14,1 9,9 0 0 - - N 1024,3 10 -
23.08.2019 01:00:00 14,9 9,9 0 0 - - N 1024,4 10 -
23.08.2019 00:00:00 17,5 9,1 0 0 - - N 1024,0 10 -
22.08.2019 23:00:00 14,7 10,5 9 5 - - E 1024,3 10 -
22.08.2019 22:00:00 19,0 8,6 8 4 - - N 1023,9 10 -
22.08.2019 21:00:00 20,3 8,9 0 0 - - N 1023,7 10 -
22.08.2019 20:00:00 22,5 7,8 5 3 - - E 1023,7 10 -
22.08.2019 19:00:00 23,5 8,0 9 5 - - E 1023,4 10 -
22.08.2019 18:00:00 23,8 7,0 5 3 - - ENE 1023,4 10 -
22.08.2019 17:00:00 23,9 8,3 8 4 - - NNE 1023,7 10 -
22.08.2019 16:00:00 24,1 9,3 5 3 - - S 1023,7 10 -
22.08.2019 15:00:00 23,4 9,0 5 3 - - S 1024,1 10 -
22.08.2019 14:00:00 22,8 8,8 8 4 - - E 1024,3 10 -
22.08.2019 13:00:00 22,1 9,3 11 6 - - SE 1024,8 10 -
22.08.2019 12:00:00 21,4 9,3 5 3 - - E 1024,9 10 -
22.08.2019 11:00:00 19,9 9,7 8 4 - - E 1025,4 10 -
22.08.2019 10:00:00 17,3 9,9 11 6 - - E 1025,4 10 -
22.08.2019 09:00:00 16,0 9,0 9 5 - - ENE - 10 -
22.08.2019 08:00:00 10,4 8,5 0 0 - - N 1025,1 10 -
22.08.2019 07:00:00 9,3 7,1 0 0 - - N 1025,1 10 -
22.08.2019 06:00:00 9,6 7,2 8 4 - - ESE 1024,6 10 -
22.08.2019 05:00:00 - - - - - - - - - -
22.08.2019 04:00:00 - - - - - - - - - -
22.08.2019 03:00:00 - - - - - - - - - -
22.08.2019 02:00:00 - - - - - - - - - -
22.08.2019 01:00:00 - - - - - - - - - -
22.08.2019 00:00:00 - - - - - - - - - -
21.08.2019 23:00:00 - - - - - - - - - -
21.08.2019 22:00:00 16,6 8,3 9 5 - - E 1025,3 10 -
21.08.2019 21:00:00 - - - - - - - - - -
21.08.2019 20:00:00 - - - - - - - - - -
21.08.2019 19:00:00 - - - - - - - - - -
21.08.2019 18:00:00 - - - - - - - - - -
21.08.2019 17:00:00 - - - - - - - - - -
21.08.2019 16:00:00 - - - - - - - - - -
21.08.2019 15:00:00 - - - - - - - - - -
21.08.2019 14:00:00 - - - - - - - - - -
21.08.2019 13:00:00 - - - - - - - - - -
21.08.2019 12:00:00 - - - - - - - - - -
21.08.2019 11:00:00 - - - - - - - - - -
21.08.2019 10:00:00 15,8 11,6 5 3 - - ENE 1027,5 10 -
21.08.2019 09:00:00 - - - - - - - - - -
21.08.2019 08:00:00 - - - - - - - - - -
21.08.2019 07:00:00 8,4 8,4 0 0 - - N 1027,6 10 -
21.08.2019 06:00:00 9,4 9,4 0 0 - - N 1026,9 10 -
21.08.2019 05:00:00 8,5 8,4 0 0 - - N 1026,6 10 -
21.08.2019 04:00:00 9,2 9,2 0 0 - - N 1026,6 10 -
21.08.2019 03:00:00 10,0 9,4 0 0 - - N 1026,4 10 -
21.08.2019 02:00:00 11,1 10,5 0 0 - - N 1026,1 10 -
21.08.2019 01:00:00 12,2 10,8 9 5 - - WNW 1026,1 10 -
21.08.2019 00:00:00 12,4 11,0 0 0 - - N 1025,9 10 -
20.08.2019 23:00:00 13,1 11,2 0 0 - - N 1025,6 10 -
20.08.2019 22:00:00 13,6 10,9 0 0 - - N 1025,2 10 -
20.08.2019 21:00:00 15,1 10,7 0 0 - - N 1024,5 10 -
20.08.2019 20:00:00 16,4 10,7 5 3 - - SW 1024,3 10 0,3
20.08.2019 19:00:00 15,1 12,2 8 4 - - SSW 1024,2 10 0,0
20.08.2019 18:00:00 18,3 9,9 8 4 - - SW 1023,5 10 0,0
20.08.2019 17:00:00 18,5 8,5 11 6 - - WSW 1023,5 10 -
20.08.2019 16:00:00 19,1 9,0 11 6 - - SW 1022,7 10 -
20.08.2019 15:00:00 20,4 8,7 15 8 - - SW 1022,7 10 -
20.08.2019 14:00:00 18,4 8,9 9 5 - - SSW 1022,3 10 -
20.08.2019 13:00:00 17,0 8,7 0 0 - - N 1022,7 10 -
20.08.2019 12:00:00 15,9 9,1 8 4 - - ESE 1022,7 10 -
20.08.2019 11:00:00 15,5 8,9 0 0 - - N 1021,8 10 -
20.08.2019 10:00:00 13,9 9,9 0 0 - - N 1022,0 10 -
20.08.2019 09:00:00 12,7 10,2 0 0 - - N 1022,0 10 -
20.08.2019 08:00:00 10,7 9,9 0 0 - - N 1021,3 10 -
20.08.2019 07:00:00 8,4 7,9 0 0 - - N 1021,1 10 -
20.08.2019 06:00:00 9,7 8,5 0 0 - - N 1020,5 10 -
20.08.2019 05:00:00 9,3 7,9 5 3 - - SW 1020,3 10 -
20.08.2019 04:00:00 10,8 8,5 0 0 - - N 1020,1 10 -
20.08.2019 03:00:00 10,7 8,6 0 0 - - N 1019,8 10 -
20.08.2019 02:00:00 12,7 9,1 5 3 - - W 1020,0 10 -
20.08.2019 01:00:00 13,7 8,9 0 0 - - N 1020,0 10 -
20.08.2019 00:00:00 14,7 9,1 0 0 - - N 1019,3 10 -
19.08.2019 23:00:00 15,2 9,3 5 3 - - W 1019,1 10 -
19.08.2019 22:00:00 15,8 9,2 5 3 - - SW 1018,8 10 -
19.08.2019 21:00:00 17,3 9,2 8 4 - - W 1018,1 10 -
19.08.2019 20:00:00 18,9 9,1 13 7 - - SW 1017,8 10 -
19.08.2019 19:00:00 20,4 8,7 18 10 - - WSW 1017,3 10 -
19.08.2019 18:00:00 21,1 8,7 22 12 - - SW 1017,3 10 -
19.08.2019 17:00:00 21,2 8,5 22 12 - - WSW 1016,8 10 -
19.08.2019 16:00:00 21,2 9,4 18 10 - - SW 1016,8 10 -
19.08.2019 15:00:00 20,2 8,8 21 11 - - SW 1016,9 10 -
19.08.2019 14:00:00 21,6 9,8 15 8 - - SW 1016,4 10 -
19.08.2019 13:00:00 19,8 9,4 15 8 - - WSW 1016,2 10 -
19.08.2019 12:00:00 19,3 10,6 11 6 - - SW 1016,2 10 -
19.08.2019 11:00:00 17,3 11,6 13 7 - - SW 1016,0 10 -
19.08.2019 10:00:00 15,4 15,4 11 6 - - SSW 1015,7 10 -
19.08.2019 09:00:00 14,0 14,0 8 4 - - SSW 1015,7 10 -
19.08.2019 08:00:00 13,5 13,5 8 4 - - W 1015,0 0,2 -
19.08.2019 07:00:00 13,5 13,5 0 0 - - N 1014,3 0,2 -
19.08.2019 06:00:00 13,6 13,6 8 4 - - SW 1014,0 10 -
19.08.2019 05:00:00 14,0 14,0 8 4 - - SW 1013,7 10 -
19.08.2019 04:00:00 14,6 14,6 8 4 - - SW 1013,4 10 -
19.08.2019 03:00:00 14,6 14,6 5 3 - - SW 1012,7 10 -
19.08.2019 02:00:00 14,8 14,8 5 3 - - SW 1012,7 10 -
19.08.2019 01:00:00 14,8 14,6 5 3 - - W 1011,5 10 -
19.08.2019 00:00:00 14,8 14,8 0 0 - - N 1011,3 10 -
18.08.2019 23:00:00 15,5 15,0 8 4 - - SW 1011,0 10 -
18.08.2019 22:00:00 16,1 14,3 11 6 - - W 1010,1 10 -
18.08.2019 21:00:00 17,3 15,3 15 8 - - WSW 1009,1 10 -
18.08.2019 20:00:00 17,9 16,9 13 7 - - SW 1009,1 10 -
18.08.2019 19:00:00 18,4 17,7 18 10 - - SW 1009,1 10 0,0
18.08.2019 18:00:00 18,3 17,5 16 9 55 30 SW 1008,4 10 2,8
18.08.2019 17:00:00 22,3 17,0 31 17 54 29 WSW 1007,1 10 -
18.08.2019 16:00:00 22,1 18,3 24 13 - - SSW 1006,4 10 0,0
18.08.2019 15:00:00 20,6 19,2 26 14 - - SSW 1006,4 10 0,3
18.08.2019 14:00:00 21,5 17,7 34 18 55 30 SW 1006,1 10 -
18.08.2019 13:00:00 22,2 18,0 28 15 - - SW 1005,7 10 0,0
18.08.2019 12:00:00 21,3 18,3 31 17 54 29 SSW 1004,7 10 -
18.08.2019 11:00:00 20,8 19,1 31 17 - - S 1004,7 10 -
18.08.2019 10:00:00 18,4 18,4 21 11 - - S 1005,3 10 -
18.08.2019 09:00:00 17,3 17,3 16 9 - - S 1005,3 10 -
18.08.2019 08:00:00 16,3 16,3 8 4 - - SSE 1006,5 10 -
18.08.2019 07:00:00 16,2 16,2 15 8 - - S 1006,8 10 -
18.08.2019 06:00:00 16,6 16,6 11 6 - - SSW 1006,7 10 0,0
18.08.2019 05:00:00 16,5 16,5 9 5 - - SSW 1006,7 10 1,3
18.08.2019 04:00:00 16,4 16,4 8 4 - - SSW 1007,2 8 3,0
18.08.2019 03:00:00 16,3 16,3 0 0 - - N 1007,2 10 1,0
18.08.2019 02:00:00 16,1 16,1 0 0 - - N 1008,1 9 0,5
18.08.2019 01:00:00 16,2 16,2 5 3 - - SSW 1008,4 10 1,0
18.08.2019 00:00:00 16,1 16,1 9 5 - - SW 1008,7 10 0,5
17.08.2019 23:00:00 16,0 16,0 15 8 - - SSW 1008,9 10 0,5
17.08.2019 22:00:00 16,0 16,0 13 7 - - SSW 1009,2 10 0,3
17.08.2019 21:00:00 16,1 16,1 16 9 - - SSW 1009,6 10 0,0
17.08.2019 20:00:00 16,0 16,0 18 10 - - S 1009,9 10 -
17.08.2019 19:00:00 15,8 15,5 21 11 - - SSW 1010,3 10 0,3
17.08.2019 18:00:00 16,5 16,0 26 14 - - SSW 1010,3 10 0,5
17.08.2019 17:00:00 16,7 15,6 15 8 - - S 1009,8 10 0,0
17.08.2019 16:00:00 16,2 15,4 11 6 - - S 1010,3 10 0,0
17.08.2019 15:00:00 16,6 15,1 21 11 - - SSW 1010,6 10 -

tt = Température de l'air
td = dewpoint
ff = Vitesse du vent
fx = gusts
dd = Direction du vent
ppp = reduced air pressure
vv = visibility
rr = Quantités de précipitations

stations d'obs. à proximité